Location: Unspecified
(0.0000°N, 0.0000°E)
Time: 00:52:46
(UTC+00:00)

CSTB 1 - Pass Details

Date: 20 May 2026
Orbit: 607 x 696 km, 98.4° (Epoch: 10 June)

Event Time Altitude Azimuth Distance (km) Brightness Sun altitude
Rises 04:52:29 0° 32° (NNE) 3,055 ? -15.0°
Reaches altitude 10° 04:54:59 10° 43° (NE) 2,145 ? -14.4°
Maximum altitude 04:59:00 28° 102° (ESE) 1,281 ? -13.5°
Drops below altitude 10° 05:03:02 10° 161° (SSE) 2,147 ? -12.6°
Sets 05:05:31 0° 172° (S) 3,059 ? -12.0°
